Temperature
12 12 12 13 13 12 13 13 12 13 14 14 13 13 12 11 11 11 10 10 10 11 10 10 10 11 11 11 11 11 11 11 12 12 12 12 12 12 13 13 12 12 13
11 10 11 12 12 12 12 11 12 12 13 13 13 12 11 11 10 10 10 10 10 11 11 10 10 10 11 10 10 10 10 10 11 11 12 11 11 11 11 12 12 11 12
9 9 10 11 12 12 11 11 12 12 13 13 13 12 12 11 10 10 10 10 10 10 10 10 10 10 10 9 10 10 9 9 10 10 10 11 12 11 10 10 11 11 11
8 8 8 9 11 11 11 9 11 11 12 12 12 12 11 10 10 9 9 9 9 9 9 9 9 9 9 9 9 9 9 9 9 10 10 10 10 10 10 9 9 10 10
7 7 7 7 8 9 10 9 10 11 11 11 11 11 10 10 9 9 9 9 8 9 8 8 8 8 8 8 9 9 9 9 8 9 9 9 9 9 9 10 9 9 9
7 7 7 7 7 7 8 8 8 10 10 10 10 10 10 9 9 8 8 8 8 8 8 8 8 8 7 8 8 8 8 8 8 8 8 8 8 8 8 8 8 8 8
7 7 6 6 6 6 7 6 7 7 8 8 9 9 9 9 9 8 8 8 8 7 7 7 7 7 7 7 7 7 7 7 7 7 7 7 7 7 7 7 8 8 8
7 6 6 5 5 5 5 5 6 6 6 7 8 9 9 9 9 8 8 8 7 7 7 7 7 6 6 6 7 7 7 7 7 7 7 7 7 7 7 7 7 7 8
6 6 5 5 5 4 4 4 4 5 6 6 7 8 8 8 8 8 8 8 7 7 7 7 6 6 6 6 6 6 6 6 6 7 7 7 7 7 7 7 6 7 8
6 5 5 4 4 4 4 3 3 3 5 6 6 6 7 7 8 8 8 8 7 7 6 6 6 6 6 5 6 6 6 6 6 6 6 6 7 6 7 7 7 6 7
5 5 5 5 4 4 3 2 2 2 3 5 5 5 5 6 7 8 8 7 7 6 5 5 5 5 5 4 4 4 4 4 5 5 5 6 6 6 6 6 6 6 6
4 5 4 4 4 3 2 1 1 1 1 2 3 4 4 4 5 6 7 6 6 5 5 4 4 3 3 3 2 2 2 2 3 3 4 5 5 4 5 5 5 6 6
4 4 4 3 3 3 2 1 0 1 -1 -0 -0 1 3 3 2 4 4 4 5 4 3 3 2 2 1 0 0 1 1 1 1 1 2 2 3 3 3 3 4 4 5
4 3 3 3 3 3 1 -0 -1 0 -0 -1 -2 -2 -1 -1 1 2 3 2 2 2 1 1 0 -0 -1 -1 -0 0 0 0 1 1 1 1 1 1 1 2 2 3 3
3 2 2 2 2 2 1 -0 -1 -1 -2 -2 -2 -2 -2 -2 -1 1 1 0 0 1 -1 -1 -2 -1 -1 -1 -1 -1 -1 -0 -0 -0 -0 -0 -0 -0 -0 0 1 1 2
1 0 0 0 0 1 -0 -0 -2 -2 -3 -3 -4 -4 -3 -3 -2 -1 -2 -2 -2 -1 -2 -2 -2 -2 -3 -3 -2 -2 -2 -2 -2 -2 -2 -1 -1 -1 -1 -1 -0 0 1
-1 -2 -2 -1 -1 -1 -1 -2 -2 -4 -4 -4 -5 -4 -4 -4 -4 -3 -4 -4 -3 -3 -3 -3 -3 -3 -4 -4 -4 -3 -3 -3 -3 -3 -3 -3 -2 -3 -3 -2 -2 -2 -1
-2 -2 -2 -2 -2 -2 -2 -3 -4 -5 -5 -5 -5 -5 -5 -5 -5 -5 -4 -4 -4 -4 -4 -4 -4 -4 -5 -5 -5 -5 -4 -5 -4 -4 -3 -3 -4 -5 -5 -5 -5 -4 -4
-2 -2 -2 -2 -3 -3 -3 -4 -5 -5 -6 -6 -6 -6 -6 -5 -5 -5 -5 -5 -5 -5 -5 -5 -5 -6 -6 -6 -6 -6 -7 -7 -7 -6 -5 -5 -6 -7 -5 -5 -6 -6 -5
-2 -2 -3 -3 -4 -4 -5 -5 -6 -7 -7 -7 -7 -7 -6 -5 -5 -6 -6 -6 -6 -6 -6 -6 -6 -6 -7 -7 -7 -8 -8 -8 -8 -8 -7 -7 -7 -8 -7 -6 -7 -7 -7
-3 -3 -4 -5 -5 -6 -6 -6 -7 -7 -8 -8 -7 -7 -7 -7 -7 -7 -7 -8 -8 -8 -7 -7 -7 -8 -8 -8 -9 -9 -9 -9 -9 -9 -9 -9 -8 -8 -7 -7 -8 -8 -7
-5 -5 -5 -6 -7 -7 -8 -8 -8 -8 -9 -9 -8 -8 -9 -8 -8 -9 -9 -9 -9 -9 -9 -9 -9 -9 -9 -9 -9 -10 -10 -10 -10 -10 -10 -10 -8 -8 -8 -8 -7 -7 -7
-8 -8 -7 -7 -8 -8 -9 -10 -9 -9 -10 -10 -10 -10 -10 -9 -9 -10 -10 -10 -10 -10 -10 -10 -10 -10 -10 -10 -10 -10 -10 -11 -10 -11 -10 -9 -9 -9 -9 -8 -8 -8 -8
-9 -9 -9 -9 -9 -10 -10 -10 -10 -10 -11 -11 -11 -11 -10 -10 -10 -10 -10 -11 -11 -11 -10 -10 -10 -11 -11 -11 -11 -10 -10 -11 -11 -11 -10 -10 -10 -10 -9 -9 -9 -9 -10
-10 -10 -10 -11 -12 -12 -11 -11 -11 -11 -11 -11 -11 -11 -11 -11 -11 -11 -11 -11 -11 -11 -11 -11 -11 -11 -11 -11 -11 -11 -10 -10 -11 -11 -12 -12 -12 -12 -12 -12 -11 -11 -11
-11 -12 -12 -12 -12 -12 -12 -11 -11 -11 -12 -12 -12 -12 -12 -12 -12 -12 -12 -12 -11 -12 -12 -12 -12 -12 -12 -11 -11 -11 -11 -11 -11 -12 -12 -13 -13 -12 -12 -12 -12 -13 -13
Wind_Speed
24 25 23 16 10 10 11 12 11 10 8 6 6 6 5 5 5 3 3 3 4 5 5 4 3 4 4 4 4 3 4 2 2 4 4 5 5 6 4 6 6 6 6
26 27 26 22 15 12 13 13 13 12 11 8 7 5 5 5 4 4 4 3 3 3 3 4 4 3 3 4 4 5 4 2 3 3 2 3 4 5 4 4 4 3 3
26 27 27 27 22 16 13 13 13 12 12 9 6 5 4 5 6 6 5 4 4 4 4 4 4 4 4 4 4 4 4 3 2 3 3 3 5 5 5 4 3 2 1
23 25 27 29 29 23 15 13 12 12 11 10 8 9 9 9 10 8 6 4 4 4 4 4 4 4 5 5 5 4 3 4 4 2 2 3 0 3 3 4 2 2 1
21 23 25 26 26 25 18 13 13 12 11 10 10 10 10 10 8 8 7 6 5 5 4 4 4 4 5 5 5 5 5 5 5 5 3 3 2 2 3 4 3 3 3
19 22 24 24 24 25 23 18 16 15 14 12 11 11 11 11 10 9 8 7 6 5 4 4 4 4 5 5 5 5 6 6 6 5 5 5 4 5 5 5 6 5 4
19 22 24 25 26 27 26 23 20 18 17 14 13 12 11 11 11 10 8 8 6 6 5 4 4 5 5 6 6 6 7 8 8 8 8 7 7 5 6 6 6 7 6
21 21 22 23 23 24 24 24 23 21 19 18 16 14 13 11 10 10 8 7 5 4 2 3 4 5 6 6 6 6 7 7 9 10 10 8 9 8 7 8 8 9 8
23 22 23 23 23 23 23 23 23 23 21 21 21 17 14 13 12 9 7 5 3 1 2 3 4 5 6 6 6 6 7 7 8 9 9 9 9 8 9 9 10 11 11
23 22 23 24 24 23 22 22 22 21 22 21 19 15 12 12 11 8 7 5 4 1 3 4 5 7 8 8 8 7 7 7 8 7 7 9 8 9 9 9 10 11 12
22 22 26 26 24 23 22 22 23 24 22 21 17 16 15 14 11 9 7 5 5 1 3 4 6 7 8 9 9 9 8 9 8 7 8 9 9 8 8 9 10 10 11
25 28 29 27 24 21 20 19 21 21 21 21 13 11 11 9 10 9 7 5 6 3 2 3 4 5 6 7 7 8 8 8 7 6 6 7 8 9 9 8 9 10 11
32 32 30 27 25 21 18 17 19 18 17 15 9 3 5 8 9 6 6 4 6 5 1 1 1 3 4 5 5 4 3 3 3 4 3 4 5 7 7 7 7 7 8
34 32 29 27 25 22 17 16 15 14 13 10 7 3 0 5 7 8 8 7 5 4 1 0 4 6 6 6 7 8 7 7 8 9 9 9 9 8 7 4 3 4 7
34 32 30 28 26 24 19 11 10 10 9 7 6 5 4 2 3 8 8 4 3 5 2 3 5 7 7 7 8 8 8 8 8 8 7 8 10 12 11 8 6 4 1
33 33 32 29 25 23 18 7 6 7 7 7 7 6 5 5 6 7 3 2 4 5 3 5 8 9 9 11 12 9 8 8 7 6 5 5 7 9 11 11 10 10 6
30 30 28 25 22 18 10 5 5 6 7 8 8 8 8 7 6 4 0 3 6 5 4 5 7 9 10 12 12 10 6 5 5 4 5 5 6 7 6 7 6 6 6
26 24 21 19 17 10 6 5 6 7 8 8 8 8 7 5 4 6 7 6 5 4 5 7 7 7 9 11 9 7 5 5 5 5 6 7 7 7 10 8 6 5 4
22 20 17 14 10 8 7 6 8 8 8 8 9 9 8 4 5 7 6 4 4 5 5 6 6 6 8 10 8 6 5 4 5 5 7 8 7 11 13 10 8 7 6
20 18 14 12 11 10 9 9 10 10 10 9 9 9 10 7 7 6 5 4 3 3 4 4 5 6 6 7 7 7 5 5 5 5 5 7 10 11 11 9 7 7 8
20 16 13 13 13 12 10 10 10 11 10 9 8 9 10 9 7 6 5 4 3 2 2 2 3 5 6 6 7 7 6 5 5 4 4 5 10 11 10 8 7 9 10
18 15 13 13 13 13 11 11 11 10 9 8 8 8 9 8 7 6 5 5 4 3 3 4 4 4 4 4 5 7 6 7 6 5 4 6 10 10 8 7 9 10 8
16 13 12 12 12 13 13 12 12 10 9 9 9 9 9 8 7 6 6 5 4 4 4 4 4 4 4 4 4 6 6 6 6 5 7 8 9 8 6 8 9 8 6
14 13 12 12 12 13 13 13 13 11 10 9 9 9 9 9 8 6 5 4 4 5 5 4 5 5 5 5 5 6 6 5 5 4 6 8 7 6 6 7 6 5 6
12 12 11 11 12 12 13 13 13 12 10 9 9 9 8 8 7 6 5 5 5 6 6 6 6 7 7 8 10 11 7 4 3 5 6 6 6 6 5 5 6 6 6
12 11 11 11 12 12 13 13 13 12 11 10 9 9 9 8 8 8 7 6 6 9 9 9 9 9 12 14 13 12 4 1 2 4 6 6 6 7 7 7 7 6 7
Wind_Direction
20 15 10 355 311 272 254 244 239 232 223 217 215 214 211 205 198 190 197 209 204 203 211 211 207 211 210 207 211 209 208 202 226 224 210 213 210 210 207 239 222 212 215
16 11 9 4 342 297 265 248 241 237 232 231 231 232 212 200 179 156 143 146 157 166 185 198 202 199 190 178 184 189 187 183 194 213 167 189 200 206 199 202 188 183 180
13 9 6 4 356 334 284 254 246 242 237 230 214 200 188 186 185 185 172 154 152 151 155 167 185 191 196 186 174 178 198 194 194 246 257 215 215 166 181 179 162 149 149
11 9 6 4 0 346 312 273 263 254 244 231 221 216 218 216 209 202 193 182 185 181 170 171 181 195 200 192 187 186 195 205 210 225 275 292 292 222 182 189 205 239 281
7 7 6 2 359 356 340 297 284 269 253 243 243 240 239 234 218 209 206 207 200 197 190 193 197 207 211 206 201 204 206 213 211 209 213 226 230 251 234 219 225 255 255
2 2 2 358 356 358 356 332 294 282 268 256 249 243 237 225 214 213 216 217 208 192 191 198 203 216 225 228 222 221 224 225 230 227 220 216 210 213 215 227 236 251 256
357 358 358 356 356 355 353 347 326 300 286 275 264 251 241 228 217 215 221 223 211 200 194 219 232 245 249 251 244 232 228 228 232 235 233 230 232 226 225 239 256 264 270
355 352 350 348 345 344 345 343 336 319 300 284 266 254 244 234 226 220 214 218 219 215 222 255 267 270 270 267 259 250 243 235 232 235 235 234 233 228 231 239 252 257 259
343 340 339 336 334 331 332 337 336 326 311 296 272 251 253 251 238 222 216 194 184 206 277 296 292 286 285 282 277 265 261 254 249 244 243 240 239 235 234 237 243 252 262
330 332 331 328 327 327 326 329 331 325 314 298 278 258 239 242 240 217 194 160 133 70 305 319 309 301 296 292 288 282 280 274 264 258 254 247 243 236 232 231 236 240 249
328 325 326 325 321 320 325 327 330 329 324 310 271 237 225 215 202 204 174 153 124 73 326 327 313 308 303 293 285 278 276 271 268 265 257 253 250 248 243 237 237 238 240
323 321 322 320 317 319 324 324 329 332 332 324 286 224 195 205 211 192 157 154 123 108 22 341 327 325 319 311 298 281 275 271 271 277 277 272 270 262 255 248 242 241 238
322 323 322 321 317 320 322 323 331 337 338 340 328 280 195 196 209 186 146 127 100 79 36 309 12 37 21 13 3 352 19 38 37 31 9 342 301 272 265 258 252 244 238
320 319 318 318 317 323 321 321 328 338 344 350 343 359 260 188 173 149 105 83 83 84 35 92 102 87 66 49 44 46 53 53 51 47 47 37 26 16 358 346 317 253 229
320 320 319 319 316 321 323 319 324 340 348 1 358 5 2 8 95 82 75 93 97 85 85 80 78 78 65 53 49 50 46 42 44 44 42 38 30 30 34 38 25 10 341
323 320 318 317 318 319 324 332 342 349 360 15 9 5 7 6 31 61 72 112 109 101 111 77 66 64 62 61 53 45 52 49 42 29 18 23 30 23 28 32 31 32 24
323 318 315 314 317 326 343 7 5 2 17 21 15 12 12 8 9 8 214 107 97 109 108 77 66 63 56 52 52 39 38 43 38 17 353 354 9 359 9 11 12 14 8
323 321 315 314 319 349 26 34 25 22 23 21 13 5 3 2 22 39 45 58 84 96 86 70 58 56 46 39 45 27 11 8 7 0 354 348 346 352 347 336 333 332 326
321 322 321 322 346 21 29 33 34 29 26 21 11 358 344 349 68 62 47 51 84 90 81 72 57 46 36 23 17 7 350 351 347 349 360 353 344 359 348 334 328 325 318
326 333 346 8 27 27 25 31 28 22 15 12 7 0 358 24 50 51 43 41 69 90 87 69 43 31 22 18 7 6 359 357 348 346 0 14 1 357 354 346 341 325 326
355 10 26 31 27 23 27 31 22 11 1 4 10 12 10 20 29 35 35 30 28 35 33 17 8 10 10 8 5 8 4 360 349 349 352 7 360 357 359 350 344 340 331
9 23 31 30 25 21 21 24 17 2 358 5 16 18 17 19 16 19 22 18 358 334 313 305 319 346 353 351 346 355 3 351 341 343 339 352 349 347 347 346 350 341 327
9 18 26 26 22 20 19 17 10 5 10 16 21 19 17 19 11 10 13 8 358 344 326 318 322 323 317 301 297 308 306 328 333 339 344 337 333 334 332 339 337 329 328
7 12 19 21 19 17 18 15 11 10 17 20 20 17 16 14 15 9 9 6 360 347 336 324 316 308 303 301 295 292 274 266 295 320 323 323 320 320 317 318 320 325 326
5 11 13 15 16 16 18 16 12 9 10 15 13 11 9 5 1 359 353 345 346 335 325 321 312 307 303 303 301 299 294 277 290 308 304 305 312 313 314 316 318 319 314
2 6 8 11 11 13 14 12 11 10 7 2 6 2 357 353 347 341 339 339 336 333 326 321 314 308 301 299 300 304 317 80 349 303 295 298 304 308 313 314 314 312 305
Height
1497 1491 1486 1482 1481 1480 1480 1480 1479 1479 1478 1476 1474 1473 1472 1470 1469 1468 1467 1467 1467 1466 1466 1466 1466 1465 1464 1463 1463 1463 1463 1464 1465 1467 1467 1468 1470 1470 1471 1472 1474 1474 1475
1494 1491 1487 1484 1481 1479 1478 1477 1476 1475 1475 1474 1472 1470 1469 1467 1466 1465 1464 1464 1464 1464 1463 1463 1464 1463 1462 1461 1460 1461 1461 1461 1462 1463 1463 1463 1465 1465 1467 1468 1469 1469 1470
1498 1493 1487 1484 1479 1476 1474 1473 1474 1473 1472 1470 1468 1467 1465 1464 1463 1463 1462 1461 1461 1461 1461 1460 1461 1460 1460 1460 1458 1459 1460 1460 1460 1461 1463 1462 1460 1462 1464 1464 1463 1465 1466
1501 1496 1489 1481 1478 1475 1471 1470 1470 1470 1469 1467 1465 1463 1462 1461 1460 1460 1459 1458 1459 1458 1458 1458 1458 1458 1457 1456 1456 1456 1457 1458 1458 1459 1460 1460 1459 1460 1460 1461 1460 1461 1462
1503 1498 1492 1488 1484 1477 1470 1468 1467 1466 1465 1463 1462 1459 1458 1457 1456 1456 1455 1455 1454 1454 1454 1454 1454 1455 1455 1454 1452 1453 1454 1455 1455 1456 1457 1457 1456 1455 1457 1457 1459 1460 1459
1504 1499 1494 1490 1484 1477 1470 1466 1464 1462 1461 1458 1456 1455 1453 1453 1452 1452 1452 1453 1452 1450 1450 1451 1450 1451 1452 1452 1450 1450 1451 1452 1453 1453 1453 1454 1453 1452 1453 1455 1457 1458 1456
1503 1498 1493 1488 1481 1476 1471 1466 1461 1458 1457 1455 1453 1452 1451 1450 1448 1448 1448 1449 1449 1448 1449 1448 1448 1449 1449 1449 1448 1448 1449 1449 1449 1450 1451 1450 1450 1450 1451 1452 1453 1453 1452
1502 1498 1494 1489 1484 1478 1472 1465 1460 1455 1453 1451 1448 1447 1447 1446 1445 1443 1443 1444 1444 1444 1445 1445 1445 1445 1445 1445 1445 1445 1445 1444 1445 1446 1446 1444 1445 1445 1446 1448 1450 1450 1449
1499 1496 1492 1486 1480 1474 1468 1463 1456 1449 1446 1444 1444 1442 1442 1442 1441 1440 1439 1438 1439 1439 1440 1440 1440 1440 1440 1440 1440 1440 1440 1440 1440 1440 1439 1439 1439 1439 1441 1443 1446 1447 1445
1497 1493 1488 1482 1476 1469 1463 1457 1452 1445 1438 1434 1435 1435 1435 1438 1437 1435 1433 1432 1433 1435 1437 1435 1435 1436 1435 1435 1434 1434 1433 1433 1435 1434 1433 1433 1434 1436 1437 1437 1439 1441 1442
1494 1488 1483 1477 1470 1464 1458 1451 1445 1437 1429 1422 1421 1423 1426 1429 1428 1427 1426 1427 1428 1431 1431 1430 1430 1429 1429 1428 1426 1426 1426 1426 1427 1427 1427 1427 1430 1431 1432 1432 1433 1434 1435
1491 1484 1478 1471 1465 1458 1452 1446 1439 1431 1422 1415 1411 1412 1414 1419 1420 1420 1420 1423 1422 1424 1425 1425 1424 1422 1421 1420 1419 1418 1418 1419 1420 1420 1420 1421 1424 1425 1427 1427 1427 1428 1428
1483 1476 1470 1465 1459 1452 1446 1440 1433 1424 1417 1411 1408 1407 1406 1407 1412 1414 1413 1415 1416 1418 1419 1419 1418 1416 1416 1416 1416 1414 1414 1414 1414 1414 1415 1416 1418 1420 1421 1421 1420 1420 1421
1478 1471 1464 1458 1453 1448 1442 1435 1428 1420 1412 1407 1405 1403 1402 1402 1404 1407 1407 1411 1413 1413 1415 1417 1415 1412 1413 1414 1413 1411 1411 1411 1409 1410 1411 1412 1412 1413 1413 1413 1413 1414 1415
1473 1466 1459 1452 1447 1442 1437 1430 1423 1417 1410 1405 1403 1402 1401 1400 1400 1399 1403 1408 1409 1409 1415 1416 1413 1411 1411 1411 1411 1410 1409 1408 1408 1409 1410 1410 1409 1408 1408 1408 1408 1408 1409
1469 1462 1454 1448 1443 1438 1433 1426 1420 1414 1409 1405 1403 1401 1400 1399 1398 1397 1403 1405 1405 1407 1415 1414 1411 1410 1409 1408 1409 1408 1407 1407 1408 1409 1409 1409 1407 1405 1405 1404 1404 1404 1405
1467 1457 1449 1444 1439 1434 1428 1423 1418 1414 1409 1406 1405 1402 1400 1399 1399 1400 1404 1404 1404 1409 1414 1412 1410 1409 1409 1408 1407 1408 1408 1408 1407 1407 1407 1406 1404 1402 1401 1401 1401 1401 1401
1462 1453 1446 1440 1435 1430 1425 1421 1417 1414 1411 1409 1407 1405 1403 1402 1402 1404 1404 1404 1407 1410 1410 1409 1409 1408 1408 1407 1406 1406 1406 1406 1405 1404 1403 1402 1401 1399 1398 1399 1398 1398 1399
1458 1451 1443 1437 1432 1428 1425 1421 1418 1415 1412 1410 1409 1407 1406 1405 1404 1404 1405 1407 1408 1409 1408 1408 1408 1408 1406 1405 1405 1404 1403 1402 1402 1400 1398 1398 1398 1396 1394 1395 1396 1396 1396
1454 1447 1441 1436 1432 1429 1426 1423 1420 1417 1414 1411 1410 1409 1408 1406 1406 1406 1407 1407 1407 1407 1407 1406 1407 1406 1405 1404 1403 1402 1401 1400 1399 1398 1396 1395 1394 1392 1392 1392 1392 1393 1394
1452 1446 1441 1437 1434 1431 1428 1425 1422 1418 1416 1414 1411 1409 1408 1408 1408 1407 1406 1405 1405 1405 1404 1404 1404 1403 1402 1401 1401 1400 1399 1399 1397 1395 1395 1393 1392 1391 1389 1390 1390 1389 1389
1454 1448 1444 1440 1436 1432 1429 1427 1424 1421 1418 1416 1413 1411 1410 1409 1408 1407 1404 1403 1403 1403 1403 1403 1403 1401 1400 1400 1399 1398 1398 1397 1396 1394 1394 1392 1390 1389 1389 1388 1386 1385 1385
1458 1452 1447 1442 1438 1434 1431 1429 1426 1423 1420 1418 1415 1413 1411 1408 1407 1406 1404 1403 1403 1402 1402 1402 1401 1400 1400 1399 1397 1396 1396 1394 1393 1391 1390 1389 1388 1387 1386 1385 1384 1383 1381
1460 1454 1449 1444 1440 1436 1433 1430 1427 1424 1422 1420 1417 1415 1413 1410 1407 1406 1404 1404 1403 1403 1402 1401 1401 1400 1399 1397 1396 1395 1393 1390 1390 1389 1388 1387 1386 1385 1384 1383 1381 1379 1377
1462 1457 1452 1447 1443 1439 1435 1432 1429 1426 1424 1422 1419 1417 1413 1410 1408 1407 1405 1404 1402 1402 1402 1400 1399 1397 1396 1395 1394 1392 1391 1388 1388 1388 1388 1386 1384 1382 1381 1379 1377 1375 1374
1464 1459 1455 1450 1446 1442 1438 1434 1431 1428 1426 1424 1420 1416 1413 1411 1409 1407 1404 1402 1400 1398 1397 1397 1396 1394 1393 1392 1390 1389 1387 1384 1384 1385 1385 1384 1382 1379 1377 1375 1373 1372 1370